QPF
0.02 0.02 0.02 0.02 0.01 0.01 0.02 0.01 0.01 0.01 0.01 0.01 0.02 0.01 0.01 0.02 0.03 0.04 0.04 0.05 0.05 0.06 0.06 0.09 0.12 0.11 0.10 0.08 0.10 0.11 0.09 0.08 0.08 0.07 0.06 0.05 0.04 0.03 0.03 0.03 0.02 0.01 0.02
0.02 0.02 0.02 0.02 0.01 0.02 0.02 0.01 0.01 0.01 0.01 0.01 0.01 0.02 0.01 0.02 0.03 0.03 0.04 0.05 0.06 0.06 0.08 0.09 0.11 0.11 0.10 0.09 0.10 0.10 0.09 0.08 0.07 0.06 0.06 0.05 0.05 0.05 0.03 0.03 0.03 0.02 0.01
0.01 0.02 0.02 0.02 0.02 0.02 0.01 0.01 0.02 0.02 0.01 0.02 0.02 0.03 0.03 0.02 0.02 0.03 0.04 0.05 0.06 0.06 0.06 0.08 0.09 0.08 0.09 0.11 0.10 0.11 0.10 0.09 0.07 0.05 0.05 0.06 0.05 0.06 0.05 0.03 0.03 0.04 0.03
0.02 0.02 0.02 0.02 0.02 0.02 0.02 0.02 0.02 0.02 0.03 0.03 0.03 0.04 0.04 0.04 0.03 0.02 0.02 0.03 0.04 0.06 0.07 0.07 0.09 0.08 0.07 0.09 0.11 0.10 0.11 0.11 0.09 0.07 0.05 0.05 0.06 0.07 0.06 0.04 0.03 0.04 0.03
0.03 0.03 0.03 0.03 0.02 0.02 0.02 0.02 0.03 0.04 0.03 0.04 0.04 0.04 0.03 0.03 0.02 0.01 0.01 0.02 0.02 0.04 0.06 0.08 0.12 0.11 0.11 0.10 0.10 0.09 0.10 0.10 0.09 0.07 0.05 0.05 0.06 0.07 0.06 0.05 0.04 0.03 0.03
0.04 0.04 0.05 0.05 0.04 0.03 0.03 0.04 0.05 0.04 0.03 0.03 0.02 0.02 0.03 0.04 0.03 0.02 0.02 0.02 0.02 0.02 0.04 0.06 0.09 0.10 0.14 0.12 0.12 0.12 0.10 0.10 0.08 0.07 0.07 0.06 0.06 0.06 0.07 0.07 0.07 0.05 0.04
0.04 0.04 0.05 0.07 0.07 0.06 0.05 0.05 0.05 0.04 0.03 0.04 0.03 0.03 0.04 0.04 0.03 0.02 0.02 0.03 0.03 0.03 0.02 0.03 0.05 0.06 0.08 0.09 0.11 0.13 0.13 0.11 0.09 0.08 0.07 0.06 0.05 0.05 0.06 0.07 0.08 0.06 0.04
0.05 0.05 0.05 0.06 0.08 0.07 0.06 0.05 0.04 0.04 0.03 0.03 0.03 0.04 0.03 0.03 0.03 0.02 0.03 0.03 0.04 0.03 0.03 0.04 0.05 0.06 0.06 0.07 0.07 0.09 0.11 0.11 0.10 0.10 0.10 0.08 0.06 0.05 0.05 0.05 0.06 0.06 0.06
0.04 0.05 0.05 0.05 0.06 0.06 0.06 0.06 0.06 0.05 0.04 0.03 0.03 0.05 0.04 0.03 0.04 0.03 0.02 0.02 0.02 0.03 0.03 0.04 0.04 0.05 0.05 0.06 0.07 0.06 0.05 0.07 0.08 0.09 0.09 0.08 0.06 0.06 0.06 0.06 0.06 0.06 0.06
0.04 0.04 0.05 0.06 0.06 0.05 0.06 0.06 0.05 0.05 0.04 0.03 0.04 0.04 0.05 0.06 0.07 0.05 0.03 0.02 0.02 0.03 0.03 0.03 0.04 0.04 0.04 0.05 0.06 0.05 0.04 0.04 0.06 0.08 0.09 0.08 0.07 0.06 0.06 0.06 0.06 0.06 0.06
0.03 0.03 0.05 0.07 0.07 0.05 0.05 0.05 0.04 0.04 0.04 0.03 0.04 0.05 0.06 0.07 0.07 0.07 0.05 0.04 0.03 0.03 0.03 0.04 0.05 0.05 0.04 0.06 0.07 0.05 0.04 0.03 0.05 0.07 0.08 0.10 0.12 0.10 0.08 0.08 0.09 0.09 0.08
0.04 0.04 0.04 0.05 0.06 0.05 0.04 0.05 0.05 0.04 0.04 0.05 0.05 0.06 0.06 0.07 0.09 0.09 0.08 0.05 0.04 0.04 0.04 0.03 0.04 0.04 0.04 0.05 0.05 0.04 0.03 0.02 0.02 0.04 0.06 0.06 0.08 0.11 0.10 0.08 0.07 0.06 0.06
0.05 0.05 0.05 0.04 0.04 0.04 0.04 0.04 0.04 0.05 0.04 0.05 0.06 0.06 0.06 0.06 0.07 0.09 0.09 0.08 0.07 0.05 0.05 0.04 0.03 0.03 0.03 0.04 0.05 0.03 0.03 0.02 0.02 0.02 0.03 0.04 0.04 0.05 0.08 0.09 0.07 0.06 0.05
0.04 0.04 0.05 0.05 0.05 0.06 0.05 0.05 0.06 0.06 0.05 0.06 0.05 0.06 0.06 0.05 0.06 0.07 0.07 0.07 0.07 0.06 0.05 0.04 0.03 0.02 0.03 0.03 0.03 0.02 0.04 0.03 0.02 0.02 0.02 0.02 0.02 0.02 0.03 0.04 0.06 0.05 0.05
0.06 0.07 0.06 0.05 0.06 0.07 0.07 0.07 0.06 0.06 0.05 0.05 0.04 0.03 0.04 0.04 0.05 0.07 0.07 0.07 0.07 0.06 0.03 0.02 0.02 0.02 0.02 0.02 0.02 0.02 0.04 0.04 0.03 0.02 0.02 0.01 0.01 0.02 0.02 0.02 0.03 0.03 0.03
0.06 0.09 0.09 0.07 0.07 0.06 0.05 0.05 0.06 0.06 0.06 0.06 0.05 0.06 0.05 0.04 0.05 0.05 0.06 0.06 0.06 0.05 0.04 0.03 0.02 0.02 0.01 0.01 0.01 0.02 0.03 0.03 0.02 0.01 0.01 0.01 0.01 0.01 0.01 0.02 0.03 0.03 0.03
0.04 0.06 0.08 0.10 0.09 0.08 0.06 0.06 0.04 0.04 0.04 0.05 0.04 0.05 0.06 0.07 0.08 0.08 0.08 0.08 0.08 0.07 0.06 0.04 0.03 0.03 0.03 0.02 0.02 0.02 0.02 0.02 0.02 0.02 0.02 0.01 0.01 0.01 0.01 0.01 0.02 0.03 0.03
0.02 0.02 0.04 0.06 0.09 0.10 0.10 0.09 0.06 0.05 0.04 0.04 0.03 0.02 0.03 0.03 0.05 0.06 0.08 0.10 0.10 0.11 0.10 0.07 0.06 0.05 0.04 0.04 0.03 0.02 0.01 0.01 0.02 0.03 0.03 0.03 0.02 0.01 0.01 0.01 0.01 0.03 0.04
0.01 0.02 0.04 0.07 0.08 0.10 0.12 0.13 0.11 0.08 0.06 0.04 0.03 0.03 0.03 0.03 0.04 0.03 0.03 0.05 0.07 0.08 0.09 0.08 0.07 0.08 0.07 0.06 0.04 0.03 0.02 0.03 0.02 0.03 0.03 0.03 0.02 0.01 0.01 0.01 0.01 0.01 0.02
0.01 0.02 0.03 0.05 0.07 0.08 0.08 0.09 0.11 0.13 0.10 0.07 0.05 0.04 0.03 0.02 0.02 0.02 0.03 0.03 0.03 0.05 0.06 0.06 0.06 0.07 0.06 0.04 0.04 0.03 0.03 0.04 0.04 0.03 0.04 0.03 0.02 0.01 0.01 0.01 0.01 0.01 0.01
0.01 0.02 0.02 0.04 0.04 0.04 0.05 0.05 0.06 0.08 0.10 0.10 0.09 0.07 0.05 0.04 0.03 0.02 0.02 0.03 0.04 0.05 0.06 0.06 0.06 0.06 0.05 0.03 0.03 0.03 0.02 0.03 0.04 0.04 0.05 0.04 0.03 0.02 0.02 0.01 0.01 0.01 0.00
0.02 0.02 0.02 0.03 0.05 0.03 0.03 0.03 0.03 0.04 0.05 0.07 0.08 0.07 0.05 0.04 0.04 0.03 0.02 0.02 0.03 0.04 0.04 0.04 0.04 0.04 0.04 0.03 0.03 0.03 0.04 0.04 0.05 0.05 0.04 0.04 0.04 0.04 0.04 0.03 0.01 0.00 0.00
0.02 0.01 0.01 0.02 0.02 0.03 0.02 0.03 0.04 0.04 0.05 0.04 0.04 0.04 0.03 0.02 0.02 0.02 0.02 0.01 0.01 0.01 0.02 0.03 0.03 0.03 0.02 0.02 0.03 0.03 0.04 0.04 0.04 0.04 0.04 0.04 0.04 0.04 0.03 0.01 0.01 0.00 0.00
0.03 0.01 0.01 0.01 0.02 0.01 0.01 0.01 0.02 0.03 0.04 0.04 0.03 0.02 0.02 0.02 0.01 0.01 0.02 0.01 0.01 0.01 0.01 0.01 0.02 0.02 0.02 0.02 0.02 0.02 0.03 0.03 0.03 0.03 0.04 0.03 0.03 0.03 0.02 0.02 0.01 0.00 0.01
0.03 0.03 0.01 0.02 0.02 0.02 0.01 0.01 0.01 0.01 0.03 0.03 0.02 0.02 0.02 0.02 0.02 0.02 0.01 0.01 0.01 0.01 0.01 0.01 0.01 0.02 0.01 0.02 0.02 0.02 0.02 0.02 0.02 0.02 0.03 0.02 0.01 0.02 0.02 0.03 0.02 0.01 0.01
0.04 0.04 0.02 0.01 0.01 0.02 0.01 0.01 0.01 0.01 0.01 0.03 0.03 0.03 0.03 0.03 0.04 0.04 0.03 0.02 0.02 0.02 0.02 0.02 0.03 0.03 0.02 0.02 0.01 0.02 0.02 0.02 0.02 0.02 0.02 0.02 0.02 0.03 0.03 0.03 0.03 0.03 0.02
MSLP
1015.29 1015.36 1015.37 1015.32 1015.22 1015.10 1014.99 1014.89 1014.82 1014.75 1014.69 1014.62 1014.54 1014.46 1014.39 1014.36 1014.40 1014.53 1014.74 1015.01 1015.32 1015.62 1015.89 1016.09 1016.22 1016.28 1016.30 1016.30 1016.31 1016.35 1016.42 1016.52 1016.64 1016.78 1016.91 1017.05 1017.18 1017.31 1017.45 1017.58 1017.72 1017.85 1017.97
1015.39 1015.48 1015.50 1015.46 1015.37 1015.26 1015.15 1015.05 1014.97 1014.89 1014.82 1014.72 1014.61 1014.48 1014.36 1014.27 1014.23 1014.28 1014.42 1014.63 1014.89 1015.18 1015.44 1015.66 1015.82 1015.92 1015.97 1015.99 1016.01 1016.05 1016.11 1016.21 1016.34 1016.48 1016.64 1016.81 1016.97 1017.14 1017.32 1017.49 1017.66 1017.82 1017.96
1015.53 1015.63 1015.66 1015.63 1015.56 1015.46 1015.36 1015.27 1015.19 1015.12 1015.03 1014.92 1014.77 1014.60 1014.41 1014.23 1014.11 1014.06 1014.10 1014.23 1014.42 1014.66 1014.91 1015.13 1015.31 1015.44 1015.52 1015.56 1015.60 1015.65 1015.72 1015.82 1015.96 1016.12 1016.31 1016.51 1016.72 1016.93 1017.15 1017.37 1017.58 1017.78 1017.96
1015.69 1015.79 1015.82 1015.81 1015.75 1015.67 1015.59 1015.52 1015.46 1015.39 1015.31 1015.18 1015.01 1014.79 1014.54 1014.29 1014.07 1013.92 1013.85 1013.88 1014.00 1014.17 1014.37 1014.57 1014.75 1014.89 1014.99 1015.06 1015.11 1015.18 1015.26 1015.38 1015.53 1015.72 1015.94 1016.17 1016.43 1016.69 1016.96 1017.22 1017.49 1017.73 1017.96
1015.83 1015.92 1015.97 1015.97 1015.93 1015.87 1015.82 1015.77 1015.72 1015.67 1015.59 1015.47 1015.29 1015.04 1014.75 1014.44 1014.15 1013.91 1013.75 1013.67 1013.69 1013.78 1013.91 1014.07 1014.22 1014.34 1014.44 1014.52 1014.59 1014.67 1014.77 1014.90 1015.08 1015.29 1015.54 1015.82 1016.11 1016.42 1016.74 1017.06 1017.36 1017.66 1017.93
1015.94 1016.04 1016.09 1016.10 1016.08 1016.05 1016.02 1015.99 1015.96 1015.93 1015.87 1015.76 1015.58 1015.34 1015.03 1014.69 1014.35 1014.05 1013.80 1013.64 1013.56 1013.55 1013.60 1013.69 1013.78 1013.87 1013.95 1014.02 1014.08 1014.17 1014.28 1014.43 1014.63 1014.87 1015.15 1015.46 1015.79 1016.14 1016.50 1016.85 1017.21 1017.54 1017.85
1016.02 1016.12 1016.19 1016.22 1016.22 1016.21 1016.20 1016.19 1016.18 1016.16 1016.11 1016.02 1015.86 1015.64 1015.35 1015.02 1014.66 1014.32 1014.02 1013.78 1013.62 1013.52 1013.47 1013.47 1013.48 1013.51 1013.54 1013.58 1013.64 1013.72 1013.84 1014.01 1014.22 1014.48 1014.78 1015.11 1015.47 1015.84 1016.22 1016.61 1016.99 1017.36 1017.70
1016.08 1016.19 1016.28 1016.34 1016.37 1016.38 1016.39 1016.39 1016.38 1016.37 1016.34 1016.26 1016.13 1015.94 1015.69 1015.38 1015.04 1014.70 1014.37 1014.08 1013.84 1013.65 1013.50 1013.40 1013.33 1013.28 1013.25 1013.25 1013.28 1013.35 1013.47 1013.64 1013.87 1014.14 1014.45 1014.79 1015.16 1015.54 1015.93 1016.33 1016.72 1017.10 1017.47
1016.12 1016.26 1016.39 1016.49 1016.55 1016.59 1016.60 1016.61 1016.60 1016.58 1016.55 1016.48 1016.38 1016.22 1016.01 1015.75 1015.44 1015.12 1014.79 1014.47 1014.17 1013.90 1013.66 1013.46 1013.29 1013.16 1013.07 1013.01 1013.01 1013.07 1013.19 1013.36 1013.59 1013.87 1014.18 1014.52 1014.87 1015.25 1015.63 1016.01 1016.40 1016.78 1017.15
1016.14 1016.33 1016.51 1016.66 1016.76 1016.83 1016.86 1016.86 1016.84 1016.81 1016.76 1016.69 1016.60 1016.47 1016.30 1016.08 1015.82 1015.53 1015.21 1014.88 1014.54 1014.21 1013.89 1013.60 1013.34 1013.13 1012.97 1012.87 1012.84 1012.87 1012.98 1013.16 1013.39 1013.66 1013.96 1014.29 1014.63 1014.98 1015.33 1015.69 1016.06 1016.42 1016.78
1016.15 1016.39 1016.63 1016.84 1017.00 1017.10 1017.14 1017.14 1017.11 1017.05 1016.98 1016.89 1016.80 1016.68 1016.54 1016.37 1016.15 1015.89 1015.59 1015.25 1014.88 1014.50 1014.13 1013.76 1013.43 1013.14 1012.93 1012.78 1012.72 1012.74 1012.84 1013.01 1013.24 1013.51 1013.80 1014.11 1014.43 1014.74 1015.06 1015.39 1015.72 1016.05 1016.39
1016.10 1016.41 1016.72 1016.99 1017.20 1017.35 1017.42 1017.42 1017.37 1017.29 1017.18 1017.08 1016.97 1016.86 1016.73 1016.58 1016.40 1016.17 1015.89 1015.55 1015.17 1014.76 1014.33 1013.91 1013.52 1013.18 1012.91 1012.73 1012.64 1012.65 1012.74 1012.91 1013.13 1013.40 1013.68 1013.97 1014.26 1014.55 1014.84 1015.12 1015.42 1015.71 1016.01
1015.99 1016.36 1016.73 1017.07 1017.34 1017.53 1017.63 1017.64 1017.59 1017.48 1017.36 1017.23 1017.10 1016.99 1016.87 1016.74 1016.58 1016.37 1016.11 1015.78 1015.39 1014.96 1014.50 1014.03 1013.60 1013.21 1012.90 1012.69 1012.57 1012.57 1012.65 1012.81 1013.03 1013.29 1013.56 1013.84 1014.12 1014.38 1014.64 1014.90 1015.15 1015.41 1015.68
1015.79 1016.22 1016.65 1017.05 1017.37 1017.61 1017.74 1017.77 1017.72 1017.61 1017.47 1017.33 1017.19 1017.07 1016.96 1016.84 1016.70 1016.51 1016.26 1015.94 1015.56 1015.11 1014.63 1014.14 1013.67 1013.25 1012.90 1012.66 1012.52 1012.49 1012.55 1012.70 1012.91 1013.16 1013.42 1013.69 1013.96 1014.21 1014.45 1014.69 1014.92 1015.14 1015.37
1015.52 1015.99 1016.47 1016.91 1017.29 1017.56 1017.73 1017.79 1017.76 1017.66 1017.52 1017.38 1017.24 1017.12 1017.02 1016.91 1016.78 1016.61 1016.37 1016.07 1015.69 1015.24 1014.75 1014.24 1013.75 1013.30 1012.92 1012.64 1012.47 1012.40 1012.44 1012.56 1012.74 1012.98 1013.23 1013.50 1013.75 1014.00 1014.24 1014.46 1014.67 1014.88 1015.08
1015.20 1015.71 1016.21 1016.69 1017.10 1017.41 1017.61 1017.71 1017.71 1017.63 1017.52 1017.39 1017.27 1017.16 1017.07 1016.97 1016.86 1016.70 1016.48 1016.19 1015.82 1015.38 1014.89 1014.37 1013.86 1013.39 1012.98 1012.66 1012.44 1012.32 1012.31 1012.38 1012.53 1012.74 1012.97 1013.22 1013.47 1013.72 1013.95 1014.17 1014.38 1014.57 1014.75
1014.88 1015.41 1015.94 1016.43 1016.86 1017.20 1017.44 1017.57 1017.61 1017.58 1017.50 1017.40 1017.31 1017.22 1017.14 1017.06 1016.96 1016.81 1016.60 1016.32 1015.97 1015.54 1015.06 1014.54 1014.02 1013.53 1013.09 1012.72 1012.45 1012.27 1012.19 1012.20 1012.29 1012.44 1012.64 1012.86 1013.10 1013.34 1013.57 1013.79 1014.00 1014.19 1014.36
1014.59 1015.14 1015.69 1016.20 1016.64 1017.01 1017.27 1017.44 1017.52 1017.54 1017.50 1017.45 1017.38 1017.32 1017.26 1017.19 1017.10 1016.96 1016.76 1016.49 1016.15 1015.74 1015.27 1014.76 1014.24 1013.73 1013.26 1012.85 1012.52 1012.28 1012.12 1012.05 1012.06 1012.13 1012.27 1012.44 1012.64 1012.86 1013.08 1013.30 1013.51 1013.70 1013.87
1014.37 1014.94 1015.50 1016.02 1016.48 1016.87 1017.16 1017.37 1017.50 1017.56 1017.58 1017.57 1017.54 1017.50 1017.45 1017.39 1017.29 1017.16 1016.96 1016.70 1016.37 1015.98 1015.52 1015.03 1014.52 1014.01 1013.52 1013.07 1012.68 1012.36 1012.12 1011.95 1011.87 1011.85 1011.90 1012.01 1012.15 1012.32 1012.52 1012.72 1012.91 1013.11 1013.29
1014.18 1014.79 1015.37 1015.91 1016.40 1016.81 1017.14 1017.39 1017.57 1017.69 1017.75 1017.78 1017.78 1017.76 1017.72 1017.65 1017.55 1017.41 1017.21 1016.95 1016.63 1016.25 1015.82 1015.35 1014.85 1014.35 1013.85 1013.38 1012.94 1012.55 1012.23 1011.97 1011.78 1011.66 1011.60 1011.61 1011.67 1011.78 1011.92 1012.08 1012.26 1012.44 1012.62
1014.01 1014.66 1015.28 1015.85 1016.36 1016.81 1017.19 1017.49 1017.73 1017.90 1018.01 1018.08 1018.11 1018.11 1018.07 1017.99 1017.87 1017.71 1017.49 1017.23 1016.91 1016.54 1016.14 1015.69 1015.22 1014.74 1014.25 1013.77 1013.30 1012.86 1012.46 1012.11 1011.82 1011.58 1011.41 1011.31 1011.27 1011.28 1011.34 1011.44 1011.58 1011.74 1011.92
1013.79 1014.50 1015.17 1015.78 1016.34 1016.84 1017.27 1017.63 1017.93 1018.16 1018.33 1018.45 1018.51 1018.52 1018.48 1018.39 1018.25 1018.06 1017.82 1017.54 1017.22 1016.87 1016.48 1016.06 1015.63 1015.17 1014.70 1014.22 1013.75 1013.27 1012.82 1012.39 1012.00 1011.65 1011.37 1011.14 1010.98 1010.88 1010.84 1010.86 1010.93 1011.05 1011.21
1013.51 1014.27 1014.99 1015.66 1016.28 1016.83 1017.33 1017.76 1018.13 1018.43 1018.67 1018.83 1018.93 1018.96 1018.93 1018.83 1018.67 1018.45 1018.20 1017.90 1017.57 1017.22 1016.85 1016.46 1016.05 1015.62 1015.18 1014.72 1014.24 1013.75 1013.26 1012.77 1012.30 1011.86 1011.46 1011.12 1010.83 1010.61 1010.46 1010.38 1010.37 1010.42 1010.54
1013.15 1013.97 1014.75 1015.47 1016.14 1016.77 1017.33 1017.84 1018.29 1018.67 1018.97 1019.19 1019.34 1019.40 1019.38 1019.28 1019.11 1018.88 1018.60 1018.29 1017.95 1017.59 1017.23 1016.86 1016.47 1016.08 1015.66 1015.22 1014.76 1014.27 1013.75 1013.23 1012.70 1012.18 1011.68 1011.23 1010.82 1010.48 1010.21 1010.02 1009.91 1009.89 1009.94
1012.78 1013.64 1014.46 1015.23 1015.96 1016.64 1017.28 1017.86 1018.38 1018.83 1019.20 1019.48 1019.68 1019.78 1019.79 1019.71 1019.54 1019.31 1019.03 1018.70 1018.35 1018.00 1017.63 1017.26 1016.89 1016.51 1016.12 1015.70 1015.25 1014.76 1014.24 1013.69 1013.12 1012.55 1011.98 1011.44 1010.94 1010.49 1010.11 1009.81 1009.59 1009.47 1009.44
1012.48 1013.36 1014.21 1015.02 1015.79 1016.51 1017.20 1017.83 1018.41 1018.92 1019.35 1019.70 1019.95 1020.10 1020.14 1020.09 1019.95 1019.73 1019.45 1019.12 1018.77 1018.41 1018.04 1017.67 1017.30 1016.93 1016.54 1016.13 1015.68 1015.20 1014.69 1014.13 1013.54 1012.94 1012.32 1011.72 1011.14 1010.60 1010.13 1009.73 1009.42 1009.19 1009.07
Thickness
5749 5748 5746 5744 5746 5745 5744 5743 5744 5742 5742 5743 5744 5744 5745 5744 5744 5743 5740 5735 5733 5731 5730 5729 5728 5727 5727 5726 5724 5724 5723 5722 5721 5721 5720 5719 5718 5717 5716 5715 5714 5713 5712
5746 5745 5744 5742 5743 5743 5743 5742 5741 5741 5742 5741 5742 5741 5742 5742 5741 5740 5739 5736 5732 5730 5729 5728 5727 5726 5726 5725 5724 5723 5722 5722 5721 5720 5719 5718 5717 5716 5715 5714 5713 5712 5711
5743 5743 5742 5741 5741 5741 5739 5739 5739 5739 5739 5739 5738 5738 5739 5738 5738 5738 5738 5737 5734 5730 5728 5727 5726 5726 5725 5724 5723 5722 5722 5721 5720 5719 5718 5717 5717 5715 5714 5713 5712 5711 5710
5741 5740 5741 5740 5739 5739 5739 5738 5738 5737 5737 5737 5736 5736 5736 5735 5735 5735 5736 5735 5734 5733 5730 5727 5726 5725 5724 5723 5722 5721 5721 5720 5718 5717 5716 5716 5715 5714 5713 5712 5711 5710 5709
5738 5738 5738 5737 5736 5737 5737 5737 5736 5735 5733 5733 5734 5733 5734 5734 5733 5734 5734 5733 5731 5730 5730 5727 5725 5724 5723 5722 5721 5720 5719 5718 5717 5716 5715 5714 5714 5713 5712 5711 5710 5708 5707
5736 5736 5735 5734 5734 5735 5734 5733 5731 5731 5731 5730 5732 5731 5731 5732 5732 5732 5732 5731 5729 5729 5729 5728 5726 5725 5723 5721 5720 5719 5718 5717 5716 5714 5714 5713 5712 5711 5710 5709 5708 5706 5705
5734 5732 5734 5732 5731 5732 5730 5730 5729 5728 5728 5728 5727 5726 5728 5729 5729 5729 5730 5730 5729 5728 5726 5726 5726 5725 5724 5720 5719 5718 5716 5715 5714 5713 5712 5711 5710 5709 5708 5707 5706 5705 5704
5731 5732 5730 5730 5729 5728 5726 5726 5725 5726 5726 5726 5724 5721 5720 5723 5725 5728 5728 5727 5726 5726 5726 5725 5723 5721 5721 5721 5720 5717 5715 5714 5712 5711 5710 5709 5708 5706 5705 5704 5703 5702 5701
5729 5728 5727 5727 5727 5727 5725 5723 5722 5721 5721 5722 5722 5719 5717 5717 5721 5724 5723 5724 5723 5722 5723 5723 5721 5719 5718 5718 5717 5715 5713 5711 5710 5709 5708 5706 5705 5704 5702 5701 5700 5699 5698
5727 5726 5725 5723 5723 5724 5723 5722 5721 5720 5718 5718 5718 5717 5717 5717 5713 5714 5718 5720 5719 5718 5719 5720 5719 5717 5716 5715 5714 5712 5710 5708 5707 5705 5704 5703 5702 5701 5699 5698 5697 5696 5695
5725 5724 5722 5721 5720 5720 5720 5719 5717 5716 5717 5715 5715 5714 5713 5711 5711 5708 5707 5711 5714 5716 5716 5715 5715 5714 5713 5711 5710 5709 5707 5705 5703 5702 5701 5700 5698 5697 5696 5695 5693 5692 5691
5723 5722 5720 5718 5718 5717 5716 5715 5714 5713 5712 5711 5711 5711 5709 5707 5706 5706 5704 5704 5706 5710 5710 5710 5710 5709 5708 5708 5706 5704 5702 5701 5699 5698 5697 5696 5694 5693 5692 5691 5690 5688 5688
5721 5719 5719 5716 5715 5713 5712 5711 5709 5709 5708 5706 5705 5706 5707 5706 5706 5703 5701 5700 5700 5703 5703 5705 5706 5705 5705 5703 5701 5699 5697 5696 5695 5694 5693 5691 5690 5689 5688 5687 5686 5684 5684
5719 5717 5714 5713 5711 5710 5709 5707 5707 5706 5704 5702 5702 5701 5701 5702 5702 5700 5697 5695 5694 5696 5698 5699 5701 5701 5700 5699 5697 5694 5694 5692 5690 5689 5688 5686 5685 5684 5683 5682 5681 5680 5679
5715 5713 5711 5709 5708 5706 5705 5704 5703 5702 5701 5699 5699 5698 5697 5698 5697 5696 5695 5692 5689 5688 5691 5693 5694 5695 5694 5693 5691 5691 5690 5688 5686 5685 5683 5682 5681 5680 5679 5677 5676 5675 5674
5710 5709 5707 5705 5704 5702 5701 5700 5699 5698 5696 5695 5694 5693 5692 5694 5693 5692 5690 5689 5688 5685 5685 5690 5689 5691 5689 5689 5687 5686 5685 5683 5682 5681 5680 5678 5677 5675 5674 5673 5672 5671 5670
5705 5704 5703 5702 5700 5699 5698 5696 5695 5694 5692 5691 5690 5689 5687 5686 5686 5686 5685 5684 5682 5681 5678 5682 5684 5684 5681 5680 5681 5680 5680 5680 5680 5677 5675 5673 5672 5670 5669 5667 5667 5666 5664
5701 5700 5699 5697 5696 5695 5694 5692 5691 5690 5688 5686 5685 5684 5683 5682 5680 5680 5679 5678 5677 5675 5673 5672 5674 5675 5675 5674 5674 5673 5675 5676 5676 5672 5670 5668 5666 5665 5664 5662 5661 5660 5659
5695 5695 5694 5693 5692 5691 5689 5688 5687 5685 5683 5682 5680 5679 5678 5676 5674 5674 5673 5672 5672 5672 5669 5668 5668 5669 5669 5668 5667 5668 5669 5668 5669 5668 5665 5663 5660 5659 5658 5656 5655 5654 5653
5689 5688 5688 5687 5687 5686 5685 5683 5681 5679 5678 5677 5676 5674 5673 5671 5669 5668 5668 5666 5665 5664 5663 5662 5662 5662 5662 5662 5660 5661 5662 5663 5662 5664 5661 5659 5656 5654 5653 5652 5651 5649 5648
5685 5683 5682 5681 5681 5680 5679 5676 5675 5674 5672 5671 5669 5669 5667 5665 5662 5661 5662 5661 5659 5658 5658 5657 5656 5656 5656 5654 5654 5655 5655 5656 5657 5657 5656 5655 5653 5652 5649 5647 5646 5644 5643
5679 5678 5677 5676 5676 5675 5670 5667 5666 5667 5666 5665 5663 5662 5661 5659 5656 5653 5652 5650 5649 5650 5651 5650 5651 5649 5648 5648 5647 5647 5647 5648 5648 5651 5649 5649 5649 5648 5647 5646 5644 5641 5638
5673 5672 5672 5671 5670 5668 5663 5660 5658 5660 5660 5658 5657 5655 5656 5655 5651 5650 5647 5644 5643 5642 5641 5642 5643 5642 5642 5642 5640 5640 5639 5639 5639 5641 5640 5641 5643 5641 5642 5642 5638 5635 5633
5667 5666 5666 5665 5664 5662 5656 5653 5651 5653 5654 5652 5651 5650 5649 5648 5646 5643 5643 5642 5640 5639 5638 5637 5636 5635 5635 5633 5631 5631 5631 5630 5631 5633 5633 5632 5635 5635 5637 5635 5633 5631 5629
5661 5660 5660 5659 5657 5655 5650 5647 5644 5648 5648 5647 5646 5645 5643 5642 5636 5634 5635 5636 5635 5634 5632 5630 5628 5627 5625 5623 5621 5622 5623 5623 5625 5627 5628 5625 5627 5628 5629 5630 5628 5626 5625
5655 5654 5653 5653 5651 5650 5644 5641 5638 5644 5642 5641 5640 5639 5634 5633 5629 5626 5629 5629 5628 5628 5628 5627 5623 5621 5620 5618 5615 5614 5616 5615 5617 5619 5621 5618 5619 5619 5621 5625 5625 5623 5621